Simultaneous Nadir Overpasses (SNOs) Predictions

Prediction of SNOs between GOES-17 and METOP-C Satellite Orbit:

Table of predicted SNOs for the next 14.0 days since TLE Epoch: 12/21/2024
Index Date Time (GOES-17) GOES-17 Lat,Lon METOP-C Lat,Lon Distance(km) Time Diff (sec)
1 12/21/2024 16:34:56 0.02,-104.70 0.37,-106.21 172.44 80
2 12/22/2024 16:16:57 0.02,-104.71 -0.76,-101.22 397.41 80
3 12/24/2024 04:35:56 -0.02,-104.67 -0.26,-105.81 129.78 80
4 12/25/2024 04:12:35 -0.01,-104.67 0.82,-100.81 439.26 80
5 12/26/2024 16:31:28 -0.01,-104.71 0.15,-105.38 76.67 80
6 12/27/2024 16:13:28 -0.01,-104.71 -1.00,-100.39 493.00 80
7 12/29/2024 04:32:27 0.01,-104.67 -0.06,-104.97 34.01 80
8 12/31/2024 16:30:37 -0.00,-104.70 -0.02,-104.53 18.83 80
9 01/03/2025 04:26:15 -0.02,-104.66 0.08,-104.11 62.25 80
